Location: Mococo
(38.0255°N, 122.1161°W)
Time: 00:18:41
(UTC+00:00)

Cosmos 2100 Rocket - Pass Details

Date: 15 May 2026
Orbit: 956 x 999 km, 82.9° (Epoch: 10 June)

Event Time Altitude Azimuth Distance (km) Brightness Sun altitude
Rises 04:12:13 0° 197° (SSW) 3,645 6.8 -11.2°
Reaches altitude 10° 04:14:45 10° 201° (SSW) 2,708 6.2 -11.6°
Maximum altitude 04:20:51 58° 280° (W) 1,136 4.7 -12.6°
Drops below altitude 10° 04:27:04 10° 359° (N) 2,754 6.9 -13.5°
Sets 04:29:40 0° 3° (N) 3,712 7.6 -13.9°
